Haleyville, AL

9:34 AM CDT on March 29, 2017 (GMT -0500)
Haleyville

Weather History for K1M4 - January, 2014

Change the Weather History Date:

Friday, January 3, 2014

  Actual Average (KJFX) Record (KJFX)
Temperature  
Mean Temperature 22 °F -  
Max Temperature 31 °F 51 °F 68 °F (1982)
Min Temperature 14 °F 30 °F 6 °F (1979)
Degree Days  
Heating Degree Days 42    
Moisture  
Dew Point 10 °F    
Average Humidity 64    
Maximum Humidity 84    
Minimum Humidity 37    
Precipitation  
Precipitation 0.00 in - - ()
Sea Level Pressure  
Sea Level Pressure 30.42 in    
Wind  
Wind Speed 6 mph (North)    
Max Wind Speed 10 mph    
Max Gust Speed -    
Visibility 10 miles    
Events      
Averages and records for this station are not official NWS values.
T = Trace of Precipitation, MM = Missing Value Source: NWS Daily Summary

Daily Weather History Graph

Daily Weather History Graph

Search for Another Location

Airport or City:

Trip Planner

Search our weather history database for the weather conditions in past years. The results will help you decide how hot, cold, wet, or windy it might be!

Date:

Astronomy

Jan. 03, 2014 Rise Set
Actual Time 6:56 AM CST 4:53 PM CST
Civil Twilight 6:29 AM CST 5:20 PM CST
Nautical Twilight 5:57 AM CST 5:52 PM CST
Astronomical Twilight 5:27 AM CST 6:22 PM CST
Moon 8:30 AM CST (1/3) 7:53 PM CST (1/3)
Length of Visible Light 10h 51m
Length of Day
9h 56m
Waxing Crescent, 8% of the Moon is Illuminated
Jan 3
Waxing Crescent
Jan 7
First Quarter
Jan 15
Full
Jan 23
Last Quarter
Jan 30
New

Hourly Weather History & Observations

Time (CST) Temp. Windchill Dew Point Humidity Pressure Visibility Wind Dir Wind Speed Gust Speed Precip Events Conditions
12:56 AM 18.1 °F 7.9 °F 10.0 °F 71% 30.39 in 10.0 mi NNW 8.1 mph - N/A   Clear
1:56 AM 17.1 °F 8.7 °F 11.1 °F 77% 30.41 in 10.0 mi NNW 5.8 mph - N/A   Clear
2:56 AM 17.1 °F 6.6 °F 11.1 °F 77% 30.42 in 10.0 mi NNW 8.1 mph - N/A   Scattered Clouds
3:05 AM 17.6 °F 7.3 °F 10.4 °F 73% 30.39 in 10.0 mi North 8.1 mph - N/A   Mostly Cloudy
3:56 AM 17.1 °F 5.8 °F 11.1 °F 77% 30.43 in 10.0 mi North 9.2 mph - N/A   Scattered Clouds
4:56 AM 15.1 °F 4.2 °F 11.1 °F 84% 30.45 in 10.0 mi North 8.1 mph - N/A   Clear
5:56 AM 15.1 °F 5.2 °F 9.1 °F 77% 30.45 in 10.0 mi North 6.9 mph - N/A   Clear
6:56 AM 14.0 °F 5.1 °F 9.1 °F 81% 30.47 in 10.0 mi North 5.8 mph - N/A   Clear
7:56 AM 16.2 °F 5.5 °F 9.1 °F 74% 30.48 in 10.0 mi NNE 8.1 mph - N/A   Clear
8:56 AM 19.0 °F 7.5 °F 9.1 °F 65% 30.51 in 10.0 mi North 10.4 mph - N/A   Clear
9:56 AM 21.0 °F 11.4 °F 9.1 °F 60% 30.52 in 10.0 mi North 8.1 mph - N/A   Clear
10:56 AM 24.1 °F 16.0 °F 8.1 °F 51% 30.51 in 10.0 mi NE 6.9 mph - N/A   Clear
11:56 AM 27.1 °F - 7.2 °F 43% 30.47 in 10.0 mi Calm Calm - N/A   Clear
12:56 PM 29.1 °F 23.0 °F 7.2 °F 40% 30.44 in 10.0 mi Variable 5.8 mph - N/A   Clear
1:56 PM 31.1 °F - 8.1 °F 38% 30.42 in 10.0 mi Calm Calm - N/A   Clear
2:56 PM 31.1 °F - 7.2 °F 37% 30.42 in 10.0 mi Calm Calm - N/A   Clear
3:56 PM 31.1 °F - 7.2 °F 37% 30.42 in 10.0 mi Calm Calm - N/A   Clear
4:56 PM 27.1 °F - 9.1 °F 47% 30.40 in 10.0 mi Calm Calm - N/A   Clear
5:56 PM 25.2 °F - 9.1 °F 51% 30.38 in 10.0 mi Calm Calm - N/A   Clear
6:56 PM 22.1 °F - 13.1 °F 68% 30.38 in 10.0 mi Calm Calm - N/A   Clear
7:56 PM 20.1 °F - 14.0 °F 77% 30.38 in 10.0 mi Calm Calm - N/A   Clear
8:56 PM 19.0 °F - 13.1 °F 78% 30.35 in 10.0 mi Calm Calm - N/A   Clear
9:56 PM 18.1 °F - 14.0 °F 84% 30.35 in 10.0 mi Calm Calm - N/A   Clear
10:56 PM 22.1 °F - 11.1 °F 63% 30.34 in 10.0 mi Calm Calm - N/A   Clear
11:56 PM 23.0 °F 14.7 °F 12.0 °F 63% 30.32 in 10.0 mi SSE 6.9 mph - N/A   Clear